Chrysopouli, Greece

9:51 AM EEST on July 28, 2017 (GMT +0300)
Megas Alexandros

Weather History for LGKV - July, 2017

Change the Weather History Date:

Monday, July 17, 2017

  Actual Average Record
Temperature  
Mean Temperature 72 °F -  
Max Temperature 80 °F 84 °F 93 °F (2007)
Min Temperature 65 °F 66 °F 60 °F (1997)
Cooling Degree Days 8    
Growing Degree Days 22 (Base 50)    
Moisture  
Dew Point 60 °F    
Average Humidity 68    
Maximum Humidity 94    
Minimum Humidity 42    
Precipitation  
Precipitation 0.00 in - - ()
Sea Level Pressure  
Sea Level Pressure 29.87 in    
Wind  
Wind Speed 12 mph ()    
Max Wind Speed 29 mph    
Max Gust Speed 43 mph    
Visibility 6.1 miles    
Events Rain , Thunderstorm    
Averages and records for this station are not official NWS values.
T = Trace of Precipitation, MM = Missing Value Source: Averaged Metar Reports

Daily Weather History Graph

Daily Weather History Graph

Search for Another Location

Airport or City:

Trip Planner

Search our weather history database for the weather conditions in past years. The results will help you decide how hot, cold, wet, or windy it might be!

Date:

Astronomy

Jul. 17, 2017 Rise Set
Actual Time 6:04 AM EEST 8:51 PM EEST
Civil Twilight 5:31 AM EEST 9:23 PM EEST
Nautical Twilight 4:50 AM EEST 10:03 PM EEST
Astronomical Twilight 4:04 AM EEST 10:50 PM EEST
Moon 1:05 AM EEST (7/17) 2:19 PM EEST (7/17)
Length of Visible Light 15h 51m
Length of Day
14h 46m
Last Quarter, 44% of the Moon is Illuminated
Jul 17
Last Quarter
Jul 23
New
Jul 30
First Quarter
Aug 7
Full
Aug 15
Last Quarter

Hourly Weather History & Observations

Time (EEST) Temp. Heat Index Dew Point Humidity Pressure Visibility Wind Dir Wind Speed Gust Speed Precip Events Conditions
12:00 AM 70 °F - 61 °F 65% 29.91 in 6 mi Calm Calm - - Rain Light Rain
12:50 AM 68.0 °F - 62.6 °F 83% 29.89 in 6.2 mi North 4.6 mph - N/A   Mostly Cloudy
1:50 AM 68.0 °F - 62.6 °F 83% 29.86 in 6.2 mi Calm Calm - N/A   Mostly Cloudy
2:50 AM 66.2 °F - 62.6 °F 88% 29.86 in 6.2 mi SSW 5.8 mph - N/A Rain Light Rain
3:00 AM 66 °F - 62 °F 83% 29.87 in 6 mi SSW 5.8 mph - - Rain Light Rain
4:50 AM 66.2 °F - 64.4 °F 94% 29.83 in 6.2 mi Calm Calm - N/A   Overcast
5:20 AM 66.2 °F - 64.4 °F 94% 29.83 in 6.2 mi Calm Calm - N/A   Overcast
5:50 AM 66.2 °F - 62.6 °F 88% 29.83 in 6.2 mi NE 4.6 mph - N/A   Mostly Cloudy
6:00 AM 66 °F - 62 °F 82% 29.83 in 6 mi NE 4.6 mph - -   Partly Cloudy
6:20 AM 66.2 °F - 62.6 °F 88% 29.83 in 6.2 mi NE 11.5 mph - N/A   Mostly Cloudy
6:50 AM 68.0 °F - 59.0 °F 73% 29.83 in 6.2 mi ENE 18.4 mph - N/A   Mostly Cloudy
7:20 AM 68.0 °F - 59.0 °F 73% 29.83 in 6.2 mi NE 19.6 mph - N/A   Mostly Cloudy
7:50 AM 69.8 °F - 55.4 °F 60% 29.83 in 6.2 mi NE 20.7 mph 32.2 mph N/A   Mostly Cloudy
8:20 AM 69.8 °F - 55.4 °F 60% 29.83 in 6.2 mi NE 23.0 mph 34.5 mph N/A   Mostly Cloudy
8:50 AM 71.6 °F - 55.4 °F 57% 29.83 in 6.2 mi NE 23.0 mph 34.5 mph N/A   Mostly Cloudy
9:00 AM 71 °F - 55 °F 47% 29.83 in 6 mi NE 23.0 mph - -   Partly Cloudy
9:20 AM 71.6 °F - 55.4 °F 57% 29.83 in 6.2 mi NE 21.9 mph 33.4 mph N/A   Mostly Cloudy
9:50 AM 73.4 °F - 55.4 °F 53% 29.83 in 6.2 mi NE 20.7 mph 32.2 mph N/A   Mostly Cloudy
10:20 AM 73.4 °F - 55.4 °F 53% 29.83 in 6.2 mi NE 26.5 mph 40.3 mph N/A   Mostly Cloudy
10:50 AM 73.4 °F - 55.4 °F 53% 29.83 in 6.2 mi NE 21.9 mph 33.4 mph N/A   Mostly Cloudy
11:20 AM 73.4 °F - 55.4 °F 53% 29.83 in 6.2 mi NE 25.3 mph - N/A   Mostly Cloudy
11:50 AM 75.2 °F - 57.2 °F 53% 29.80 in 6.2 mi NE 24.2 mph 38.0 mph N/A   Mostly Cloudy
12:20 PM 75.2 °F - 57.2 °F 53% 29.80 in 6.2 mi NE 23.0 mph 35.7 mph N/A   Mostly Cloudy
12:50 PM 77.0 °F - 57.2 °F 50% 29.83 in 6.2 mi NE 23.0 mph 34.5 mph N/A   Mostly Cloudy
1:20 PM 77.0 °F - 57.2 °F 50% 29.80 in 6.2 mi NE 27.6 mph 39.1 mph N/A   Mostly Cloudy
1:50 PM 78.8 °F - 57.2 °F 47% 29.80 in 6.2 mi NE 26.5 mph 38.0 mph N/A   Mostly Cloudy
2:20 PM 78.8 °F - 57.2 °F 47% 29.80 in 6.2 mi NE 27.6 mph 39.1 mph N/A   Scattered Clouds
2:50 PM 80.6 °F 80.5 °F 55.4 °F 42% 29.83 in 6.2 mi NE 28.8 mph 40.3 mph N/A   Scattered Clouds
3:20 PM 80.6 °F 80.5 °F 55.4 °F 42% 29.83 in 6.2 mi NE 28.8 mph 42.6 mph N/A   Mostly Cloudy
3:50 PM 80.6 °F 80.5 °F 55.4 °F 42% 29.83 in 6.2 mi NE 23.0 mph 34.5 mph N/A   Scattered Clouds
4:20 PM 80.6 °F 80.5 °F 55.4 °F 42% 29.83 in 6.2 mi NE 25.3 mph 40.3 mph N/A   Scattered Clouds
4:50 PM 80.6 °F 80.8 °F 57.2 °F 45% 29.83 in 6.2 mi ENE 26.5 mph 38.0 mph N/A   Scattered Clouds
5:20 PM 80.6 °F 80.8 °F 57.2 °F 45% 29.86 in 6.2 mi NE 23.0 mph 35.7 mph N/A   Mostly Cloudy
5:50 PM 78.8 °F - 57.2 °F 47% 29.89 in 6.2 mi NNW 15.0 mph 29.9 mph N/A   Mostly Cloudy
6:20 PM 78.8 °F - 57.2 °F 47% 29.92 in 6.2 mi WSW 17.3 mph - N/A   Mostly Cloudy
6:50 PM 68.0 °F - 62.6 °F 83% 29.95 in 6.2 mi WSW 13.8 mph - N/A Rain , Thunderstorm Light Thunderstorms and Rain
7:20 PM 68.0 °F - 64.4 °F 88% 29.95 in 5.0 mi WSW 13.8 mph - N/A Rain Light Rain
7:50 PM 66.2 °F - 64.4 °F 94% 29.98 in 5.0 mi WSW 9.2 mph - N/A Rain Light Rain
8:20 PM 66.2 °F - 64.4 °F 94% 30.01 in 5.0 mi SW 6.9 mph - N/A Rain Light Rain
8:50 PM 66.2 °F - 64.4 °F 94% 30.01 in 5.0 mi SSW 5.8 mph - N/A Rain Light Rain
9:20 PM 66.2 °F - 64.4 °F 94% 30.01 in 6.2 mi Calm Calm - N/A Rain Light Rain
9:50 PM 66.2 °F - 64.4 °F 94% 30.01 in 6.2 mi NNW 4.6 mph - N/A Rain Light Rain
10:20 PM 66.2 °F - 64.4 °F 94% 30.01 in 6.2 mi North 5.8 mph - N/A Rain Light Rain
10:50 PM 66.2 °F - 64.4 °F 94% 29.98 in 6.2 mi NNE 8.1 mph - N/A Rain Light Rain
11:20 PM 66.2 °F - 64.4 °F 94% 29.98 in 6.2 mi NNE 10.4 mph - N/A Rain Light Rain
11:50 PM 66.2 °F - 62.6 °F 88% 29.98 in 6.2 mi NNE 12.7 mph - N/A Rain Light Rain